Location: The Saddle
(36.8333°N, 80.3417°W)
Time: 12:57:16
(UTC-05:00)

A-11 Canister half - Pass Details

Date: 16 December 2023
Orbit: 1526 x 1682 km, 47.3° (Epoch: 22 February)

Event Time Altitude Azimuth Distance (km) Brightness Sun altitude
Rises 12:56:57 0° 170° (S) 4,819 12.6 29.1°
Reaches altitude 10° 13:02:28 10° 146° (SE) 3,872 11.8 28.9°
Maximum altitude 13:06:30 13° 121° (ESE) 3,643 11.3 28.7°
Drops below altitude 10° 13:10:33 10° 96° (E) 3,918 11.1 28.5°
Sets 13:16:08 0° 72° (ENE) 4,928 11.4 28.2°
